Content
SEND FEEDBACK

Daily
Averages
Monthly
Summary
United States of America

BERKELEY, MISSOURI


Home > North America > United States > Missouri
Elevation: 564 feet     Latitude: 38 45N     Longitude: 090 22W

WEATHER
 
SELECT A DAY
Number of Records: 203,667;   Date Range: 1/1/95 - 9/18/14
 
SHARE

PRINT THIS DATA

[ ← Previous Day ]
WEATHER ALMANAC - MARCH 20, 2013
[ Next Day → ]
[ °C ]   °F
Weather ElementAverageHighLow
Temperature31.4 °F36 °F (1:51 am)26.1 °F (11:51 pm)
Dewpoint15.9 °F28 °F (3:51 am)9 °F (6:51 pm)
Humidity53.9 %78 % (4:51 am)37 % (4:51 pm)
Barometer30.23 in30.31 in (9:51 am)30.15 in (11:51 pm)
Wind Speed13.2 mph21.9 mph (9:20 am)
Wind Gust27.6 mph (11:51 am)
Weather ElementAverage
Visibility10 mi
Wind DirectionWNW (306.5 °)

Weather ElementTotal
Precipitation---
Heating Degree Days34 (Base 65)
Averaged from 26 records on March 20, 2013
WEATHER CONDITIONS BREAKOUT
WIND DIRECTION BREAKOUT
WEATHER BY HOUR - MARCH 20, 2013
[ °C ]   °F
Local TimeTemperatureDewpointHumidityBarometerVisibilityWind DirectionWind SpeedGust SpeedPrecipitationEventsConditions
1:51 AM36.0 °F24.1 °F62 %30.20 in10.0 miWest (270°)10.4 mphClear
2:51 AM35.1 °F26.1 °F70 %30.19 in10.0 miWest (270°)9.2 mphPartly Cloudy
3:51 AM35.1 °F28.0 °F76 %30.19 in10.0 miWest (270°)11.5 mphPartly Cloudy
4:51 AM33.1 °F27.0 °F78 %30.20 in10.0 miWNW (300°)11.5 mphScattered Clouds
5:51 AM32.0 °F21.0 °F64 %30.22 in10.0 miNW (310°)9.2 mphScattered Clouds
6:51 AM30.9 °F19.0 °F61 %30.24 in10.0 miNW (320°)12.7 mph20.7 mphScattered Clouds
7:36 AM30.2 °F19.4 °F64 %30.23 in10.0 miNNW (340°)13.8 mphMostly Cloudy
7:51 AM30.0 °F19.9 °F66 %30.27 in10.0 miNNW (330°)12.7 mphMostly Cloudy
8:51 AM28.9 °F15.1 °F56 %30.30 in10.0 miNW (320°)18.4 mph26.5 mphMostly Cloudy
9:20 AM28.4 °F15.8 °F59 %30.27 in10.0 miNNW (330°)21.9 mph26.5 mphMostly Cloudy
9:47 AM28.4 °F15.8 °F59 %30.28 in10.0 miNW (320°)19.6 mphMostly Cloudy
9:51 AM30.0 °F15.1 °F54 %30.31 in10.0 miNNW (330°)18.4 mphScattered Clouds
10:51 AM28.9 °F14.0 °F54 %30.30 in10.0 miNNW (340°)17.3 mph24.2 mphScattered Clouds
11:51 AM32.0 °F14.0 °F48 %30.30 in10.0 miWNW (300°)16.1 mph27.6 mphMostly Cloudy
12:51 PM33.1 °F12.9 °F43 %30.27 in10.0 miWNW (300°)12.7 mph23.0 mphMostly Cloudy
1:51 PM33.1 °F15.1 °F48 %30.25 in10.0 miWNW (290°)17.3 mph25.3 mphMostly Cloudy
2:51 PM34.0 °F12.9 °F42 %30.23 in10.0 miWNW (290°)18.4 mph25.3 mph0.00 inMostly Cloudy
3:51 PM35.1 °F12.0 °F39 %30.21 in10.0 miWNW (300°)16.1 mph26.5 mphScattered Clouds
4:51 PM35.1 °F10.9 °F37 %30.20 in10.0 miWNW (300°)16.1 mph25.3 mphScattered Clouds
5:51 PM33.8 °F10.4 °F38 %30.16 in10.0 miWNW (290°)16.1 mph26.5 mphScattered Clouds
6:51 PM32.0 °F9.0 °F38 %30.19 in9.0 miWNW (300°)15.0 mph21.9 mphPartly Cloudy
7:51 PM30.9 °F9.0 °F40 %30.19 in10.0 miNW (320°)10.4 mphPartly Cloudy
8:51 PM28.9 °F10.9 °F47 %30.18 in10.0 miWNW (290°)5.8 mphPartly Cloudy
9:51 PM28.0 °F12.0 °F51 %30.17 in10.0 miWNW (300°)3.5 mphClear
10:51 PM27.0 °F12.0 °F53 %30.17 in10.0 miWNW (300°)4.6 mphClear
11:51 PM26.1 °F12.0 °F55 %30.15 in10.0 miNNW (340°)4.6 mphClear
Hourly data recorded from KSTL, located miles away from Berkeley, Missouri







STORIES FROM OUR PARTNERS